KA1BMF-13 Weather Reports


Display with metric or nautical units.
time (UTC)temp
F
wind
direction
speed
MPH
gust
MPH
rain 1hr
in
rain 24hr
in
rain mn
in
humidity
%
barometer
mb
20260504150537 64 146 3.0 9.0 0.00 0.00 0.00 38 1011.1
20260504140518 61 127 4.0 9.0 0.00 0.00 0.00 39 1011.5
20260504130519 58 130 2.0 5.0 0.00 0.00 0.00 44 1012.2
20260504110559 42 0.0 0.0 0.00 0.00 0.00 79 1012.4
20260504100517 41 322 0.0 1.0 0.00 0.00 0.00 78 1012.1
20260504081519 40 320 0.0 1.0 0.00 0.00 0.00 78 1011.6
20260504080519 40 340 0.0 1.0 0.00 0.00 0.00 77 1011.6
20260504050519 41 0.0 0.0 0.00 0.00 0.00 72 1011.2
20260504045519 41 0.0 0.0 0.00 0.00 0.00 71 1011.3
20260504044520 41 0.0 0.0 0.00 0.00 0.00 71 1011.3
20260504043520 41 0.0 0.0 0.00 0.00 0.00 70 1011.3
20260504042517 42 0.0 0.0 0.00 0.00 0.00 69 1011.3
20260504041557 42 0.0 0.0 0.00 0.00 0.00 68 1011.3
20260504040520 42 299 0.0 1.0 0.00 0.00 0.00 67 1011.2
20260504035517 43 0.0 0.0 0.00 0.00 0.00 65 1011.2
20260504034518 43 296 0.0 1.0 0.00 0.00 0.00 64 1011.1
20260504033518 44 345 0.0 1.0 0.00 0.00 0.00 59 1011.0
20260504032521 44 270 0.0 0.0 0.00 0.00 0.00 60 1011.0
20260504031518 44 310 0.0 1.0 0.00 0.00 0.00 59 1011.0
20260504030518 44 316 0.0 1.0 0.00 0.00 0.00 56 1011.0
20260504025518 44 325 0.0 1.0 0.00 0.00 0.00 59 1011.0
20260504024518 44 0.0 0.0 0.00 0.00 0.00 54 1010.9
20260504023519 45 314 0.0 1.0 0.00 0.00 0.00 58 1011.0
20260504022525 45 0.0 0.0 0.00 0.00 0.00 57 1011.0
20260504021519 45 323 0.0 1.0 0.00 0.00 0.00 53 1010.9
20260504020519 46 298 0.0 1.0 0.00 0.00 0.00 54 1010.9
20260504015516 46 322 0.0 1.0 0.00 0.00 0.00 53 1010.8
20260504014520 46 0.0 0.0 0.00 0.00 0.00 52 1010.8
20260504013520 47 296 0.0 1.0 0.00 0.00 0.00 53 1010.7
20260504012540 47 323 0.0 1.0 0.00 0.00 0.00 53 1010.6
20260504011517 47 305 0.0 1.0 0.00 0.00 0.00 53 1010.5
20260504010618 47 303 0.0 1.0 0.00 0.00 0.00 51 1010.3
20260504005521 48 315 0.0 0.0 0.00 0.01 0.00 51 1010.2
20260504004520 48 0.0 0.0 0.00 0.01 0.00 52 1010.0
20260504003518 48 290 0.0 1.0 0.00 0.01 0.00 49 1009.9
20260504002518 49 0.0 0.0 0.00 0.01 0.00 50 1009.8
20260504001518 49 0.0 0.0 0.00 0.01 0.00 47 1009.6
20260504000518 49 325 0.0 1.0 0.00 0.01 0.00 47 1009.5
20260503235519 50 0.0 0.0 0.00 0.01 0.00 47 1009.3
20260503234522 51 323 0.0 1.0 0.00 0.01 0.00 45 1009.2
20260503233559 51 315 0.0 1.0 0.00 0.01 0.00 44 1009.1
20260503232520 52 321 0.0 2.0 0.00 0.01 0.00 43 1009.1
20260503231519 53 309 0.0 3.0 0.00 0.01 0.00 41 1009.0
20260503230556 54 75 1.0 5.0 0.00 0.01 0.00 41 1009.0
20260503225519 55 45 1.0 4.0 0.00 0.01 0.00 35 1008.9
20260503224520 55 77 1.0 4.0 0.00 0.01 0.00 35 1008.8
20260503223520 55 75 2.0 8.0 0.00 0.01 0.00 37 1008.8
20260503222517 55 15 2.0 7.0 0.00 0.01 0.00 36 1008.7
20260503221538 55 45 3.0 9.0 0.00 0.01 0.00 36 1008.6
20260503220518 55 59 1.0 4.0 0.00 0.01 0.00 37 1008.8
20260503215521 55 107 1.0 4.0 0.00 0.01 0.00 35 1008.7
20260503214518 55 109 2.0 7.0 0.00 0.01 0.00 35 1008.7
20260503213518 55 145 2.0 8.0 0.00 0.01 0.00 36 1008.6
20260503212518 55 323 2.0 7.0 0.00 0.01 0.00 36 1008.7
20260503211519 55 45 3.0 8.0 0.00 0.01 0.00 36 1008.7
20260503210519 55 62 3.0 8.0 0.00 0.01 0.00 36 1008.7
20260503205519 55 66 4.0 8.0 0.00 0.01 0.00 36 1008.6
20260503204519 55 95 3.0 8.0 0.00 0.01 0.00 36 1008.6
20260503203539 55 72 5.0 11.0 0.00 0.01 0.00 37 1008.5
20260503202519 54 50 2.0 4.0 0.00 0.01 0.00 38 1008.7
20260503201517 54 82 4.0 9.0 0.00 0.01 0.00 38 1008.7
20260503200523 54 87 4.0 12.0 0.00 0.01 0.00 37 1008.6
20260503195540 55 144 4.0 9.0 0.00 0.01 0.00 37 1008.6
20260503194520 55 105 3.0 7.0 0.00 0.01 0.00 38 1008.6
20260503193517 55 70 3.0 9.0 0.00 0.01 0.00 38 1008.5
20260503192518 54 119 5.0 11.0 0.00 0.01 0.00 38 1008.5
20260503191518 53 91 3.0 10.0 0.00 0.01 0.00 39 1008.5
20260503190601 54 62 4.0 11.0 0.00 0.01 0.00 38 1008.6
20260503185518 55 13 2.0 7.0 0.00 0.01 0.00 37 1008.5
20260503184518 54 130 4.0 9.0 0.00 0.01 0.00 37 1008.4
20260503183518 53 66 4.0 10.0 0.00 0.01 0.00 38 1008.5
20260503182519 53 64 4.0 9.0 0.00 0.01 0.00 38 1008.5
20260503181519 53 75 5.0 10.0 0.00 0.01 0.00 38 1008.5
20260503180519 53 72 4.0 10.0 0.00 0.01 0.00 39 1008.4
20260503175520 52 75 2.0 8.0 0.00 0.01 0.00 42 1008.6
20260503174519 52 130 3.0 8.0 0.00 0.01 0.00 42 1008.7
20260503173520 52 94 2.0 9.0 0.00 0.01 0.00 44 1008.9
20260503172517 50 96 4.0 8.0 0.00 0.01 0.00 44 1009.1
20260503171517 50 58 4.0 9.0 0.00 0.01 0.00 45 1009.1
20260503170520 50 57 4.0 11.0 0.00 0.01 0.00 45 1009.1